Flag for Germany Weather past 2 weeks in Homburg (Saar), Saarland, Germany

59 °F

Passing clouds.

Feels Like: 57 °F
Forecast: 51 / 58 °F
Wind: 10 mph from Southwest

Location: Saarbruecken / Ensheim

Current Time: Oct 7, 2015 at 1:06:11 AM

Latest Report: Oct 6, 2015 at 11:50 PM

Visibility: N/A

Pressure: 29.77 "Hg

Humidity: 94%

Dew point: 57 °F

Location of Homburg (Saar)Location

Historic Weather in Homburg (Saar) — Graph


Homburg (Saar) temperature yesterday

Maximum temperature yesterday: 64 °F (at 11:50 AM)
Minimum temperature yesterday: 59 °F (at 12:50 AM)
Average temperature yesterday: 60 °F

Past Weeks' High & Low Weather Summary

High68 °F (Oct 3, 4:20 PM)100% (Sep 24, 2:50 AM)30.54 "Hg (Sep 24, 2:50 AM)
Low43 °F (Oct 1, 7:50 AM)37% (Sep 29, 3:20 PM)29.59 "Hg (Sep 22, 5:20 PM)
Average54 °F74%30.12 "Hg
* Reported Sep 21 11:20 PM — Oct 6 11:20 PM, Homburg (Saar), Weather by CustomWeather, © 2015

Note: Actual official high and low records may vary slightly from our data, if they occured in-between our weather recording intervals... More about our weather records


Homburg (Saar) weather history for previous 24 hours

Time TempWeatherWind HumidityBarometerVisibility
11:20 PM
Tue, Oct 6
59 °FPassing clouds.6 mph94%29.74 "HgN/A
10:50 PM59 °FPassing clouds.7 mph94%29.74 "HgN/A
10:20 PM59 °FPassing clouds.8 mph94%29.74 "HgN/A
9:50 PM59 °FPassing clouds.7 mph94%29.74 "HgN/A
9:20 PM59 °FPassing clouds.10 mph94%29.74 "HgN/A
8:50 PM61 °FPassing clouds.12 mph88%29.74 "HgN/A
8:20 PM61 °FPassing clouds.9 mph88%29.71 "HgN/A
7:50 PM61 °FPartly sunny.9 mph88%29.71 "HgN/A
7:20 PM61 °FPartly sunny.9 mph88%29.71 "HgN/A
6:50 PM61 °FBroken clouds.10 mph94%29.71 "HgN/A
6:20 PM61 °FBroken clouds.8 mph94%29.71 "HgN/A
5:50 PM61 °FBroken clouds.10 mph94%29.68 "HgN/A
5:20 PM61 °FBroken clouds.9 mph94%29.68 "HgN/A
4:50 PM61 °FBroken clouds.10 mph88%29.68 "HgN/A
4:20 PM61 °FBroken clouds.9 mph94%29.68 "HgN/A
3:50 PM61 °FBroken clouds.13 mph94%29.68 "HgN/A
3:20 PM61 °FBroken clouds.9 mph94%29.68 "HgN/A
2:50 PM61 °FLight rain. Broken clouds.6 mph94%29.68 "Hg6 mi
2:20 PM61 °FLight rain. Broken clouds.12 mph88%29.71 "Hg5 mi
1:50 PM61 °FLight rain. Broken clouds.13 mph88%29.71 "Hg5 mi
1:20 PM63 °FLight rain. Partly sunny.12 mph88%29.68 "Hg4 mi
12:50 PM63 °FPartly sunny.7 mph88%29.68 "HgN/A
12:20 PM63 °FLight rain. Partly sunny.12 mph88%29.68 "Hg4 mi
11:50 AM64 °FDrizzle. Partly sunny.10 mph83%29.68 "HgN/A
11:20 AM63 °FPartly sunny.7 mph88%29.71 "HgN/A
10:50 AM63 °FBroken clouds.3 mph88%29.68 "HgN/A
10:20 AM61 °FBroken clouds.3 mph88%29.68 "Hg6 mi
9:50 AM61 °FBroken clouds.7 mph88%29.68 "Hg5 mi
9:20 AM59 °FBroken clouds.2 mph94%29.68 "Hg4 mi
8:50 AM59 °FFog.3 mph94%29.68 "Hg3 mi
8:20 AM59 °FFog.5 mph94%29.68 "Hg2 mi
7:50 AM59 °FFog.9 mph94%29.71 "Hg3 mi
7:20 AM59 °FPassing clouds.9 mph94%29.71 "HgN/A
6:20 AM59 °FPassing clouds.10 mph94%29.71 "HgN/A
5:50 AM59 °FPassing clouds.12 mph94%29.71 "HgN/A
5:20 AM59 °FPassing clouds.10 mph94%29.71 "HgN/A
4:50 AM61 °FPassing clouds.12 mph88%29.71 "HgN/A
4:20 AM61 °FPassing clouds.10 mph94%29.71 "HgN/A
3:50 AM61 °FPassing clouds.12 mph94%29.74 "HgN/A
3:20 AM61 °FLow clouds.12 mph94%29.74 "HgN/A
2:50 AM61 °FPassing clouds.12 mph94%29.71 "HgN/A
2:20 AM61 °FPassing clouds.14 mph94%29.71 "HgN/A
1:50 AM61 °FPassing clouds.12 mph94%29.71 "HgN/A
1:20 AM59 °FPassing clouds.12 mph100%29.71 "HgN/A
Weather by CustomWeather, © 2015

See weather overviewHow to use our weather pages